Ogden, KS

9:37 PM CDT on September 28, 2016 (GMT -0500)
Manhattan Regional

Weather History for KMHK - August, 2012

Change the Weather History Date:

Sunday, August 19, 2012

  Actual Average Record
Temperature  
Mean Temperature 69 °F 77 °F  
Max Temperature 83 °F 89 °F 105 °F (2003)
Min Temperature 54 °F 65 °F 48 °F (2001)
Degree Days  
Heating Degree Days 0 0  
Month to date heating degree days 0 0  
Since 1 June heating degree days 13 12  
Since 1 July heating degree days 0 1  
Cooling Degree Days 4 12  
Month to date cooling degree days 201 251  
Year to date cooling degree days 1514 1057  
Since 1 June cooling degree days 1234 957  
Growing Degree Days 18 (Base 50)    
Moisture  
Dew Point 46 °F    
Average Humidity 54    
Maximum Humidity 86    
Minimum Humidity 22    
Precipitation  
Precipitation 0.00 in 0.16 in 1.85 in (2016)
Month to date precipitation 1.09 2.36  
Year to date precipitation 13.72 22.62  
Sea Level Pressure  
Sea Level Pressure 30.01 in    
Wind  
Wind Speed 7 mph (NNE)    
Max Wind Speed 18 mph    
Max Gust Speed 26 mph    
Visibility 10 miles    
Events      
T = Trace of Precipitation, MM = Missing Value Source: NWS Daily Summary

Daily Weather History Graph

Daily Weather History Graph

Search for Another Location

Airport or City:

Trip Planner

Search our weather history database for the weather conditions in past years. The results will help you decide how hot, cold, wet, or windy it might be!

Date:

Astronomy

Aug. 19, 2012 Rise Set
Actual Time 6:44 AM CDT 8:15 PM CDT
Civil Twilight 6:15 AM CDT 8:43 PM CDT
Nautical Twilight 5:41 AM CDT 9:17 PM CDT
Astronomical Twilight 5:05 AM CDT 9:53 PM CDT
Moon 8:58 AM CDT (8/19) 9:07 PM CDT (8/19)
Length of Visible Light 14h 28m
Length of Day
13h 31m
Waxing Crescent, 5% of the Moon is Illuminated
Aug 19
Waxing Crescent
Aug 24
First Quarter
Aug 31
Full
Sep 8
Last Quarter
Sep 15
New

Hourly Weather History & Observations

Time (CDT) Temp. Dew Point Humidity Pressure Visibility Wind Dir Wind Speed Gust Speed Precip Events Conditions
12:52 AM 64.9 °F 48.0 °F 54% 29.96 in 10.0 mi NE 10.4 mph - N/A   Clear
1:52 AM 63.0 °F 48.0 °F 58% 29.96 in 10.0 mi North 4.6 mph - N/A   Partly Cloudy
2:52 AM 63.0 °F 48.0 °F 58% 29.97 in 10.0 mi NNE 6.9 mph - N/A   Mostly Cloudy
3:52 AM 63.0 °F 48.9 °F 60% 29.98 in 10.0 mi NNE 8.1 mph - N/A   Overcast
4:52 AM 60.1 °F 52.0 °F 75% 29.99 in 10.0 mi NNE 8.1 mph - N/A   Scattered Clouds
5:52 AM 55.9 °F 51.1 °F 84% 30.00 in 10.0 mi NNE 8.1 mph - N/A   Clear
6:52 AM 55.9 °F 50.0 °F 80% 30.02 in 10.0 mi NE 6.9 mph - N/A   Clear
7:52 AM 60.1 °F 50.0 °F 69% 30.04 in 10.0 mi NNE 6.9 mph - N/A   Partly Cloudy
8:52 AM 64.0 °F 50.0 °F 60% 30.06 in 10.0 mi NE 9.2 mph - N/A   Partly Cloudy
9:52 AM 69.1 °F 50.0 °F 51% 30.06 in 10.0 mi NE 6.9 mph - N/A   Clear
10:52 AM 73.0 °F 48.0 °F 41% 30.07 in 10.0 mi ENE 9.2 mph - N/A   Clear
11:52 AM 77.0 °F 46.9 °F 34% 30.06 in 10.0 mi NE 10.4 mph 17.3 mph N/A   Clear
12:52 PM 79.0 °F 46.0 °F 31% 30.06 in 10.0 mi NE 15.0 mph 26.5 mph N/A   Clear
1:52 PM 80.1 °F 46.0 °F 30% 30.04 in 10.0 mi NNE 13.8 mph 18.4 mph N/A   Partly Cloudy
2:52 PM 81.0 °F 45.0 °F 28% 30.02 in 10.0 mi NE 10.4 mph 21.9 mph N/A   Partly Cloudy
3:52 PM 82.0 °F 41.0 °F 23% 30.00 in 10.0 mi NNE 11.5 mph 16.1 mph N/A   Clear
4:52 PM 82.0 °F 39.9 °F 22% 29.99 in 10.0 mi North 8.1 mph - N/A   Clear
5:52 PM 81.0 °F 39.9 °F 23% 29.98 in 10.0 mi North 8.1 mph 16.1 mph N/A   Clear
6:52 PM 80.1 °F 39.0 °F 23% 29.97 in 10.0 mi NE 11.5 mph - N/A   Clear
7:52 PM 73.9 °F 42.1 °F 32% 29.98 in 10.0 mi NE 6.9 mph - N/A   Clear
8:52 PM 69.1 °F 43.0 °F 39% 30.00 in 10.0 mi Calm Calm - N/A   Clear
9:52 PM 64.0 °F 44.1 °F 48% 30.02 in 10.0 mi Calm Calm - N/A   Clear
10:52 PM 60.1 °F 45.0 °F 57% 30.03 in 10.0 mi Calm Calm - N/A   Clear
11:52 PM 57.0 °F 46.0 °F 67% 30.04 in 10.0 mi Calm Calm - N/A   Clear